Location: Newark
(45.6439°N, 0.5436°E)
Time: 09:53:58
(UTC+00:00)

N. Korean satellite - Pass Details

Date: 22 November 2019
Orbit: 455 x 507 km, 97.2° (Epoch: 15 December)

Event Time Altitude Azimuth Distance (km) Brightness Sun altitude
Rises 06:24:23 0° 5° (N) 2,615 10.1 -7.5°
Reaches altitude 10° 06:26:34 10° 358° (N) 1,720 9.1 -7.1°
Maximum altitude 06:30:02 39° 288° (WNW) 760 7.1 -6.5°
Drops below altitude 10° 06:33:26 10° 219° (SW) 1,684 9.1 -6.0°
Sets 06:35:34 0° 211° (SSW) 2,552 10.1 -5.7°
